User: anonymous
Location: Ostrava
(49.8330°N, 18.2830°E)
Time: 13:13:51
(UTC+02:00)
Language:

Cosmos 2221 - Orbit

View from above orbital plane
View from above orbital plane
View from above satellite
View from above satellite

Ground track
Ground track

The orbit data is extracted from the following two-line orbital elements,

1 22236U 92080A   14243.75234396  .00000579  00000-0  63340-4 0  2294
2 22236 082.5091 302.1075 0018735 140.1739 220.0856 14.85976382175660
Epoch (UTC): 31 August 2014 18:03:22
Eccentricity: 0.0018735
inclination: 82.5091°
perigee height: 597 km
apogee height: 623 km
right ascension of ascending node: 302.1075°
argument of perigee: 140.1739°
revolutions per day: 14.85976382
mean anomaly at epoch: 220.0856°
orbit number at epoch: 17566

The dashed part of the orbit path shows where the satellite is in the earth's shadow,  

DLR